Simultaneous Nadir Overpasses (SNOs) Predictions

Prediction of SNOs between LANDSAT-8 and METOP-B Satellite Orbit:

Table of predicted SNOs for the next 14.0 days since TLE Epoch: 11/12/2022
Index Date (LANDSAT-8) Time (LANDSAT-8) Lat,Lon (LANDSAT-8) SZA (LANDSAT-8 ) Date (METOP-B) Time (METOP-B) Lat,Lon (METOP-B) SZA (METOP-B ) Distance(km) Time Diff (sec)
1 11/14/2022 07:32:00 -81.11, -73.33 78.34 11/14/2022 07:31:19 -81.11, -73.17 78.33 2.91 41
2 11/14/2022 08:21:25 81.14, 94.78 101.75 11/14/2022 08:21:58 81.13, 94.72 101.75 1.11 33
3 11/17/2022 03:06:12 -81.10, -6.93 77.65 11/17/2022 03:05:41 -81.10, -7.12 77.68 3.19 31
4 11/17/2022 03:55:37 81.13, 161.15 102.43 11/17/2022 03:56:19 81.13, 161.13 102.45 0.36 42
5 11/19/2022 22:40:24 -81.11, 59.67 76.98 11/19/2022 22:40:02 -81.11, 59.62 76.99 0.89 22
6 11/19/2022 23:29:49 81.14,-132.27 103.10 11/19/2022 23:30:40 81.14,-132.14 103.13 2.28 51
7 11/22/2022 18:14:36 -81.11, 126.11 76.38 11/22/2022 18:14:23 -81.12, 126.28 76.36 3.17 13
8 11/22/2022 19:04:01 81.14, -65.86 103.69 11/22/2022 19:05:02 81.14, -65.86 103.71 0.18 61
9 11/25/2022 13:48:46 -81.12,-167.25 75.81 11/25/2022 13:48:43 -81.13,-167.12 75.79 2.25 3



Historial Predications of SNOs between LANDSAT-8 and METOP-B
